オテルマ彗星

39P/Oterma (2002)

English version
Home page
Total 6,336 html files since Dec. 4, 1995
Updated on August 30, 2001

---------------------------------------------------------------------

・ プロフィール

符号 39P/2001 P3
検出日 2001年8月13日
検出光度 22.0等
検出者 Y. R. Fernandez (University of Hawaii)

・ 軌道要素

Epoch 2003 Jan. 1.0 TT = JDT 2452640.5
T 2002 Dec. 22.19288 TT                                 Nakano
q   5.4707250            (2000.0)            P               Q
n   0.05057214     Peri.   56.36677     +0.88309845     -0.46891025
a   7.2420547      Node   331.58698     +0.41846143     +0.80270846
e   0.2445894      Incl.    1.94315     +0.21219605     +0.36848652
P  19.49
>From 227 observations 1942-2001, mean residual 1".0.

・ 星図

・ 光度変化

        m1 = 11.0 + 5 logΔ + 10.0 log r

---------------------------------------------------------------------

軌道要素は中野主一氏の計算によるもので、 M.P.E.C. 2001-Q35 に掲載されたものです。
星図は StellaNavigator Ver.2.0 for Windows (アストロアーツ 編著 / アスキー出版局刊) で作成したものです。
光度グラフはComet for Windowsで作成したものです。

---------------------------------------------------------------------

Copyright(C) 1995-2008 Seiichi Yoshida (comet@aerith.net). All rights reserved.